Regional Weather Roundup
Issued by NWS Bismarck, ND

Home | Current Version | Previous Version | Text Only | Print | Product List | Glossary On
Versions: 1 2 3 4 5 6 7 8 9 10 11 12 13 14 15 16 17 18 19 20 21 22 23 24 25 26 27 28 29 30 31 32 33 34 35 36 37 38 39 40 41 42 43 44 45 46 47 48 49 50
000
ASUS43 KBIS 210910
RWRBIS

NWR BROADCAST TEXT
NATIONAL WEATHER SERVICE BISMARCK ND
400 AM CDT TUE APR 21 2015

NOTE: "FAIR" INDICATES FEW OR NO CLOUDS BELOW 12,000 FEET WITH NO
SIGNIFICANT WEATHER AND/OR OBSTRUCTIONS TO VISIBILITY.


CITY           SKY/WX    TMP DP  RH WIND       PRES   REMARKS
WILLISTON      CLOUDY    34  23  64 NE6       29.85S
MINOT          MOCLDY    31  21  66 NW12      29.82S
MINOT AFB      MOCLDY    29  24  82 NW9       29.82R WCI  20
BISMARCK       LGT SNOW  33  30  88 N8        29.84R FOG
DICKINSON      CLOUDY    36  19  50 NE12      29.80R
GARRISON         N/A     32  30  92 NW9       29.82S
HETTINGER ARPT CLOUDY    33  22  63 N9        29.79R
JAMESTOWN      CLOUDY    32  24  72 NW17      29.71S
BEACH          CLOUDY    34  21  60 SW5       29.80S
CARRINGTON     FAIR      32  27  80 NW14G23   29.75R
CROSBY         CLOUDY    32  32 100 CALM      29.87R
HARVEY           N/A    N/A N/A N/A MISG        N/A
HAZEN          LGT SNOW  32  28  86 NE6       29.86S
LINTON         PTSUNNY   34  23  64 N6        29.79S
MANDAN         LGT SNOW  32  28  86 N13       29.83R
OAKES            N/A     28  25  86 NW13      29.72R WCI  18
STANLEY        LGT SNOW  32  32 100 CALM      29.84S
WATFORD CITY   PTSUNNY   32  21  64 E5        29.83R
$$

CITY           SKY/WX    TMP DP  RH WIND       PRES   REMARKS
GRAND FORKS    CLOUDY    34  28  80 NW18G28   29.64R
GRAND FORKS AF CLOUDY    33  28  80 N21       29.65R
DEVILS LAKE    MOCLDY    34  25  69 N21G33    29.72R
FARGO          CLOUDY    35  28  75 NW22G29   29.64R
CANDO          CLOUDY    32  25  74 N24G32    29.75R WCI  19
CAVALIER       LGT RAIN  32  28  86 N22G32    29.67R WCI  19
GRAFTON        DRIZZLE   34  32  93 NW25G31   29.65S
GWINNER        PTSUNNY   32  27  80 NW16      29.70S
LANGDON        CLOUDY    32  25  74 N29G38    29.69R WCI  18
ROLLA          CLOUDY    32  25  74 N26G32    29.76S WCI  18
WALHALLA       CLOUDY    32  32 100 N18G28    29.70R
$$

CITY           SKY/WX    TMP DP  RH WIND       PRES   REMARKS
ABERDEEN       PTCLDY    32  22  66 NW13      29.77R
MOBRIDGE       CLOUDY    35  23  61 N6        29.76R
BUFFALO          N/A     35  23  61 W9        29.73R
RAPID CITY     CLEAR     32  21  64 W7        29.83F
GLASGOW        CLEAR     34  21  59 E9        29.76R
SIDNEY         PTCLDY    39  21  48 NE9       29.83S
WOLF POINT     CLEAR     37  23  56 E13       29.80R
GLENDIVE       CLOUDY    36  19  51 SE3       29.79S
MILES CITY     CLEAR     31  18  58 S7        29.78F
BAKER          CLOUDY    34  21  59 CALM      29.79F
$$

CITY           SKY/WX    TMP DP  RH WIND       PRES   REMARKS
BILLINGS       PTCLDY    44  25  47 SW10      29.83F
GREAT FALLS    CLEAR     40  27  59 CALM      29.84S
REGINA         CLEAR     30  23  74 E6        29.91R
ESTEVAN        FOG       27  25  93 NW7       29.87R VSB 1/2 WCI  19
$$



USA.gov is the U.S. government's official web portal to all federal, state and local government web resources and services.